Location: Newark
(1.5000°S, 132.5000°E)
Time: 22:52:16
(UTC+00:00)

Hubble Space Telescope - Visible Passes

Search period start: 16 October 2019 00:00
Search period end: 26 October 2019 00:00
Orbit: 536 x 540 km, 28.5° (Epoch: 16 October)

Date Brightness Start Highest point End Pass type
(mag) Time Alt. Az. Time Alt. Az. Time Alt. Az.
16 Oct 2.9 10:54:51 10° WNW 10:56:25 22° WNW 10:56:25 22° WNW visible
17 Oct 1.9 10:44:19 10° WNW 10:47:13 42° W 10:47:13 42° W visible
18 Oct 1.6 10:33:53 10° WNW 10:37:51 45° SSW 10:38:05 45° SSW visible
19 Oct 2.3 10:23:35 10° W 10:27:18 32° SSW 10:28:58 23° SSE visible
19 Oct 3.5 18:57:58 11° S 18:59:11 12° SSE 19:00:50 10° SE visible
20 Oct 2.9 10:13:25 10° W 10:16:46 24° SSW 10:19:51 11° SSE visible
20 Oct 3.3 18:48:45 16° SSE 18:48:45 16° SSE 18:51:19 10° ESE visible
20 Oct 0.7 20:25:48 10° WSW 20:29:56 85° NNW 20:34:03 10° ENE visible
21 Oct 3.3 10:03:26 10° WSW 10:06:15 18° SSW 10:09:04 10° SSE visible
21 Oct 3.4 18:39:35 18° ESE 18:39:35 18° ESE 18:41:24 10° E visible
21 Oct 0.9 20:15:18 10° WSW 20:19:22 58° NNW 20:23:24 10° NE visible
22 Oct 3.5 09:53:46 10° SW 09:55:44 13° SSW 09:57:44 10° S visible
22 Oct 3.7 18:30:29 14° E 18:30:29 14° E 18:31:17 10° E visible
22 Oct 1.3 20:05:52 16° W 20:08:47 40° NNW 20:12:40 10° NE visible
23 Oct 1.8 19:56:44 22° WNW 19:58:14 28° NNW 20:01:48 10° NNE visible
24 Oct 2.2 19:47:33 21° NNW 19:47:40 21° NNW 19:50:48 10° NNE visible
25 Oct 2.9 19:38:17 14° N 19:38:17 14° N 19:39:35 10° N visible
